Wind_Speed
24 43 40 37 42 43 42 41 33 35 27 26 26 29 40 40 39 38 32 30 29 31 31 26 25 23 24 21 21 20 19 17 7 16 15 14 20 19 26 26 28 28 30
31 20 37 38 37 39 40 41 42 37 36 30 29 25 30 39 40 38 36 36 32 29 27 25 31 28 25 23 24 25 24 24 19 17 19 18 21 24 26 26 28 23 21
33 29 22 35 36 37 39 41 42 40 34 38 32 28 32 35 38 39 38 36 36 35 35 32 30 28 28 28 24 22 23 22 18 18 20 23 24 23 22 25 21 24 25
29 31 27 22 38 38 39 39 40 42 40 37 39 34 33 36 39 38 38 36 36 35 34 35 33 28 31 30 28 27 25 25 25 22 21 22 22 24 25 22 26 29 30
26 26 27 26 20 34 40 41 40 40 42 41 40 39 38 36 40 40 37 36 36 37 35 33 32 31 28 26 28 30 27 27 24 20 20 20 26 23 22 21 22 23 29
26 23 26 28 26 26 27 42 43 41 42 41 38 41 40 38 37 38 39 35 37 36 36 38 38 37 33 29 29 30 30 31 24 18 19 19 27 24 23 19 16 18 6
31 29 25 28 30 30 31 33 44 41 42 41 39 39 37 39 39 38 37 36 33 37 39 40 40 38 35 33 27 29 32 31 30 28 27 30 26 23 24 19 18 17 17
31 31 30 28 30 31 32 34 34 40 43 39 35 36 37 35 39 42 39 38 40 37 40 40 39 39 40 37 32 31 30 26 33 31 32 37 32 28 26 20 17 17 18
28 29 30 28 30 30 31 33 35 31 37 35 30 35 35 35 34 38 40 41 42 40 36 32 33 38 38 33 31 34 33 29 20 21 23 24 26 26 24 17 14 12 7
24 29 33 35 34 32 30 32 32 32 31 29 30 32 24 26 30 25 24 23 26 29 29 28 33 36 35 37 35 34 32 32 28 24 24 26 26 22 17 18 16 10 6
26 30 34 36 34 33 34 32 30 29 26 22 23 24 25 25 23 22 23 19 24 23 25 29 36 38 29 38 40 40 38 34 26 22 24 20 19 16 15 16 12 11 8
31 30 35 37 35 33 32 32 29 24 21 20 21 20 22 23 17 17 21 21 24 20 27 24 29 32 35 46 42 37 29 29 25 21 16 16 14 12 13 13 11 9 8
29 32 36 36 35 34 28 28 24 24 23 21 18 15 16 14 11 9 8 8 7 12 8 9 6 9 12 10 9 7 3 8 11 12 13 16 15 15 12 12 8 7 7
31 35 33 30 32 22 19 18 21 20 18 14 14 14 14 14 11 10 9 10 10 5 4 8 5 8 6 7 11 7 6 7 11 11 13 13 14 13 13 11 11 5 9
28 30 30 29 19 10 9 4 6 9 16 21 19 17 14 14 11 8 9 10 8 5 4 4 8 8 8 8 7 8 9 9 11 12 12 13 12 14 14 11 8 4 3
21 14 6 13 9 9 6 16 15 16 15 14 14 15 15 11 9 9 8 8 6 6 4 2 4 7 8 8 8 6 5 7 5 5 8 7 8 14 14 10 6 6 5
24 9 12 17 11 9 15 13 13 15 14 12 12 13 13 14 11 10 9 6 4 3 3 1 0 3 2 7 5 7 8 10 6 8 6 5 7 9 9 6 4 1 1
26 22 18 24 16 24 22 9 13 8 12 15 11 13 12 10 12 13 13 12 8 8 7 9 13 13 8 6 6 8 10 10 9 7 3 4 8 10 7 5 5 7 2
31 32 19 28 29 35 25 34 26 20 17 9 16 15 12 10 10 10 8 8 5 2 4 4 5 6 7 8 8 9 6 7 5 6 6 6 8 9 7 2 6 7 8
10 14 21 23 24 25 29 30 28 18 13 9 15 14 8 4 4 6 6 4 4 7 4 4 6 7 8 10 8 8 7 8 8 9 9 7 6 3 4 2 6 3 4
31 16 20 29 32 27 22 11 13 9 7 6 6 4 3 2 1 5 7 6 9 15 13 12 3 9 9 8 8 9 8 8 9 7 7 9 7 6 3 5 4 4 3
28 14 7 15 25 18 13 13 20 11 8 3 11 11 14 15 14 12 10 8 8 10 12 13 14 14 5 10 13 13 14 11 9 11 9 9 9 9 7 6 7 7 8
18 11 16 17 13 16 14 13 0 7 8 6 7 11 12 15 13 10 11 14 9 8 8 10 12 15 11 8 7 7 16 5 4 2 10 14 17 17 11 11 11 9 6
10 4 8 9 10 9 11 9 10 10 13 16 17 16 12 11 11 9 8 6 5 7 10 14 15 16 14 14 13 11 6 2 4 9 8 7 4 10 11 12 9 6 3
6 11 11 11 8 10 12 13 11 10 8 11 10 8 6 7 8 17 23 23 23 21 18 19 16 15 16 18 18 10 10 9 5 3 3 3 6 3 5 6 11 8 11
7 6 7 10 10 11 10 10 13 12 18 23 22 24 27 26 22 21 20 18 17 17 17 15 13 13 14 15 14 10 9 8 7 5 6 6 7 8 10 16 24 25 24
Wind_Direction
327 231 216 218 217 219 219 224 226 231 240 243 240 234 228 224 225 226 228 234 238 244 246 249 246 254 252 252 263 270 280 291 270 294 298 302 308 317 321 316 312 310 309
345 263 224 217 214 216 220 222 224 227 235 240 244 233 233 228 227 229 232 232 231 236 242 252 249 252 255 260 265 265 270 283 290 282 296 305 311 317 315 319 321 327 336
351 347 253 223 218 216 218 221 222 224 231 231 240 234 233 230 228 230 234 236 237 239 244 251 251 251 251 254 253 251 267 271 277 283 294 298 300 308 317 324 326 328 323
342 341 336 258 227 224 221 217 220 222 222 231 228 236 234 231 226 229 233 236 239 241 242 246 253 256 250 252 248 252 265 264 262 269 277 287 297 301 310 317 322 322 325
338 329 328 318 303 251 243 231 221 221 223 222 228 229 236 232 226 226 230 235 237 240 240 244 247 247 249 250 252 256 257 256 255 260 273 287 292 299 305 312 312 318 322
330 320 317 319 312 296 288 241 238 219 223 221 222 224 224 229 231 229 229 227 233 234 239 248 247 247 249 247 250 251 252 251 247 251 254 268 273 285 295 302 303 319 316
324 315 314 310 311 303 295 258 234 231 228 218 218 223 225 226 232 234 234 232 232 237 238 242 247 250 248 247 246 248 244 251 252 237 246 252 266 270 287 287 294 300 290
319 312 309 311 305 302 302 290 254 237 236 236 231 226 225 228 232 234 236 238 236 237 243 251 252 251 249 246 241 243 251 254 249 249 248 249 263 264 271 274 290 298 303
316 311 314 311 309 296 298 291 286 254 247 241 243 251 243 233 233 243 243 243 246 247 248 253 257 259 259 251 245 247 251 250 249 248 255 263 261 261 263 262 271 274 293
307 306 304 305 301 300 294 285 277 277 262 253 243 235 259 278 254 260 277 292 272 261 258 271 269 263 262 260 251 240 239 250 254 244 247 255 254 251 249 254 259 243 253
308 303 299 300 297 286 290 283 263 262 254 248 245 237 250 251 256 253 283 293 301 281 257 257 269 264 266 267 254 248 247 250 250 250 248 246 224 238 262 245 249 238 245
305 297 293 294 291 287 281 281 253 242 239 233 230 231 236 239 245 235 243 259 244 244 259 258 253 260 255 257 249 233 236 243 240 232 223 230 239 243 239 236 223 258 260
302 294 290 289 286 286 273 272 246 230 223 225 221 187 173 188 208 227 235 214 208 205 148 99 38 220 171 157 27 76 164 246 229 218 229 243 245 236 231 209 229 243 243
295 287 282 281 285 264 272 265 259 239 209 193 185 180 174 174 171 168 155 159 176 190 264 282 246 202 163 178 160 171 185 234 247 238 236 240 246 227 205 220 199 221 247
286 277 270 268 271 243 209 178 167 160 161 149 159 160 158 159 167 175 180 172 168 159 188 188 190 206 214 228 218 211 211 218 236 252 251 249 238 198 193 193 185 179 99
300 261 272 239 226 190 160 125 126 128 134 147 156 165 168 177 179 186 192 183 202 211 234 307 277 241 231 237 234 243 236 240 223 241 232 213 168 158 136 122 138 121 112
335 8 52 65 160 133 104 78 84 108 123 123 127 138 157 147 142 142 150 153 149 134 109 187 58 350 184 90 119 103 87 68 59 69 46 96 68 75 94 104 82 45 95
5 17 52 64 67 74 80 66 65 31 87 93 119 124 118 116 115 111 113 104 101 109 83 106 122 116 106 129 145 172 163 181 173 146 141 47 40 10 37 66 12 20 92
28 27 34 59 55 62 64 70 51 46 23 66 94 91 97 104 102 98 81 68 43 83 174 183 164 165 174 200 196 200 179 163 178 176 178 188 183 190 219 258 213 199 207
20 23 25 52 54 61 60 64 63 56 52 33 46 49 42 33 49 80 70 47 39 32 244 229 237 232 225 224 218 207 190 180 176 180 187 194 196 219 224 279 216 212 207
358 60 60 55 45 42 36 57 91 149 173 277 65 113 116 332 67 104 100 54 39 50 51 53 344 259 239 240 247 248 237 219 208 208 196 194 196 225 245 282 263 220 207
13 4 109 87 77 79 80 52 50 60 58 237 21 33 43 64 73 75 75 44 32 36 42 33 33 34 301 288 264 254 253 255 268 256 230 221 219 214 248 248 263 259 248
210 302 48 56 114 140 148 137 26 58 144 145 91 75 58 41 64 53 59 54 56 52 38 35 27 31 29 20 9 297 249 203 51 7 248 239 226 213 220 235 251 263 251
342 53 36 49 54 44 41 58 46 39 46 58 53 49 49 37 18 68 49 43 30 9 24 47 48 40 43 52 43 40 73 72 300 272 292 346 347 249 232 249 267 296 9
49 49 35 23 33 48 56 44 25 5 68 64 40 11 1 358 352 61 69 69 74 69 50 48 46 41 44 50 69 74 70 51 47 44 51 343 219 132 339 14 333 334 340
14 50 11 19 53 54 32 9 357 54 55 64 51 52 52 56 65 55 55 56 49 38 25 23 25 25 33 37 36 38 32 23 15 329 320 317 308 300 289 265 253 268 266
Height
793 787 784 790 789 794 794 799 802 807 810 810 811 813 815 817 819 821 823 825 827 829 831 831 832 834 834 834 834 834 832 832 830 827 826 825 823 821 819 817 814 811 808
784 779 781 781 784 786 787 790 794 796 801 804 805 806 807 810 812 814 816 818 820 822 824 826 826 828 828 828 829 829 828 828 828 825 823 821 820 818 816 814 811 808 805
784 781 779 780 781 779 779 782 784 788 791 794 796 799 800 802 805 807 809 811 813 815 817 819 819 821 821 821 821 822 823 823 823 822 819 818 816 814 812 810 808 805 803
788 783 779 776 775 776 773 773 775 776 781 784 786 788 791 793 795 798 801 804 807 809 811 811 811 812 812 813 814 815 816 816 816 817 817 815 813 811 809 806 802 801 798
787 784 780 776 774 773 772 771 767 768 770 772 775 779 781 784 786 788 790 794 797 800 802 803 804 804 805 806 808 808 809 808 809 811 811 811 808 805 805 803 800 798 795
783 782 778 774 771 767 764 762 762 756 756 761 763 765 769 772 775 778 781 784 787 790 792 793 795 797 797 799 800 800 801 801 802 803 802 801 799 800 800 800 797 795 793
775 774 774 770 765 760 755 750 747 752 751 748 749 756 759 763 767 771 774 777 779 781 783 784 787 788 789 789 791 792 793 794 794 794 793 794 795 795 796 795 794 792 790
771 768 766 764 759 754 749 741 742 741 721 748 746 748 752 754 758 762 765 768 769 771 774 777 780 780 781 782 783 783 785 786 786 786 786 787 789 791 791 790 789 788 787
768 765 762 759 755 750 743 737 733 739 738 738 734 716 744 746 749 754 757 758 761 763 766 769 773 773 774 776 776 776 777 778 780 781 781 782 784 786 786 785 785 786 784
763 760 757 754 751 745 740 733 728 725 725 726 732 732 735 732 745 747 752 757 759 757 759 761 764 764 764 766 768 768 770 769 773 775 775 775 778 779 781 780 780 782 781
759 755 751 746 743 738 732 728 724 723 723 724 724 721 733 729 738 738 746 748 751 749 729 743 752 757 758 759 760 759 758 761 763 767 770 771 772 775 775 774 775 777 777
753 748 743 739 735 730 725 719 717 718 719 719 720 723 725 730 733 735 740 737 743 737 738 736 742 745 746 748 746 747 750 753 755 756 760 764 765 766 769 770 771 772 771
746 741 736 731 725 721 716 711 710 709 711 713 716 718 722 726 729 731 735 737 736 733 731 739 738 737 740 742 738 735 737 750 751 750 753 757 760 762 763 765 766 768 768
737 731 728 723 717 712 710 705 703 703 705 709 712 716 720 724 725 728 730 732 733 731 731 737 738 737 740 740 737 740 741 747 747 742 746 749 754 755 756 759 760 762 762
729 722 718 714 711 708 705 703 701 701 702 704 709 714 719 721 724 727 731 730 731 730 735 737 737 734 733 737 738 739 739 742 743 743 746 747 747 746 748 753 755 756 758
720 713 707 705 705 704 704 701 701 703 706 708 709 711 716 719 721 723 726 729 732 732 734 730 731 732 733 735 736 738 738 740 739 742 742 745 746 744 745 748 753 752 754
721 710 705 702 703 703 702 703 704 705 706 709 711 714 718 719 722 724 727 729 729 728 730 729 729 730 730 732 732 735 737 740 740 741 745 744 742 744 744 747 750 753 755
722 715 710 708 707 705 705 710 711 715 711 713 715 716 719 721 722 723 725 726 729 731 730 729 730 732 733 733 733 735 735 737 739 741 743 743 745 746 745 747 750 752 755
732 723 722 713 709 705 706 709 715 720 722 724 719 720 723 724 725 724 725 726 728 730 731 733 734 734 733 736 736 737 736 736 739 740 741 742 744 747 750 752 751 752 753
742 738 735 724 720 717 711 710 718 732 737 734 724 721 726 728 726 726 728 730 732 732 733 733 733 734 734 736 737 738 736 735 737 739 742 744 745 746 747 748 749 751 752
744 740 738 730 725 723 724 724 729 739 739 736 733 734 731 731 728 733 734 734 734 734 734 733 732 733 735 736 737 737 735 736 737 738 739 742 742 745 747 748 749 750 750
751 740 741 739 736 737 737 738 736 738 739 740 736 736 736 733 731 733 735 735 735 735 735 735 735 733 734 737 737 737 738 738 738 739 739 740 741 742 745 746 748 749 750
752 744 742 739 741 742 740 741 740 744 742 740 739 740 738 736 733 736 738 738 737 737 737 737 735 734 735 736 737 735 736 737 737 738 738 738 740 742 743 745 748 748 746
751 749 747 746 744 743 741 741 743 744 741 742 741 740 740 740 739 737 737 738 739 739 737 735 734 735 737 738 736 737 737 737 738 739 739 738 740 742 740 743 744 744 745
753 752 751 749 748 749 748 746 746 746 746 745 744 742 740 740 740 738 738 740 741 741 741 739 738 739 739 738 739 740 740 740 741 740 739 740 741 739 744 741 745 742 744
754 753 753 752 752 751 750 750 749 749 747 746 745 745 744 744 744 743 744 744 744 745 744 743 742 742 743 744 743 742 742 741 741 742 741 741 739 739 738 737 738 739 742